Hourly Weather Agua Preta

Today, 23 April, Friday

Time Temperature Precipitation Wind Pressure Humidity
00:00 +23°C° 0 mm 0 mps 749 mmHg 95%
01:00 +23°C° 0 mm 0 mps 749 mmHg 95%
02:00 +23°C° 0 mm 0 mps 749 mmHg 94%
03:00 +23°C° 0 mm 0 mps 749 mmHg 94%
04:00 +25°C° 0 mm 1 mps 748 mmHg 93%
05:00 +23°C° 0 mm 0 mps 748 mmHg 93%
06:00 +23°C° 0 mm 0 mps 749 mmHg 93%
07:00 +23°C° 0 mm 0 mps 749 mmHg 93%
08:00 +27°C° 0 mm 1 mps 749 mmHg 86%
09:00 +28°C° 0 mm 1 mps 749 mmHg 78%
10:00 +30°C° 0 mm 2 mps 750 mmHg 71%
11:00 +31°C° 0 mm 2 mps 749 mmHg 66%
12:00 +32°C° 0 mm 2 mps 749 mmHg 61%
13:00 +34°C° 0 mm 3 mps 748 mmHg 56%
14:00 +33°C° 0 mm 3 mps 748 mmHg 56%
15:00 +33°C° 0 mm 3 mps 747 mmHg 57%
16:00 +33°C° 0 mm 3 mps 747 mmHg 58%
17:00 +30°C° 0 mm 3 mps 747 mmHg 68%
18:00 +28°C° 0 mm 2 mps 748 mmHg 79%
19:00 +26°C° 0 mm 2 mps 748 mmHg 89%
20:00 +26°C° 0.1 mm 1 mps 748 mmHg 90%
21:00 +26°C° 0.1 mm 1 mps 749 mmHg 92%
22:00 +24°C° 0.1 mm 0 mps 749 mmHg 93%
23:00 +26°C° 0.1 mm 1 mps 749 mmHg 93%

Tomorrow, 24 April, Saturday

Time Temperature Precipitation Wind Pressure Humidity
00:00 +25°C° 0.1 mm 1 mps 749 mmHg 93%
01:00 +25°C° 0.1 mm 1 mps 748 mmHg 93%
02:00 +25°C° 0.1 mm 1 mps 748 mmHg 93%
03:00 +25°C° 0.1 mm 1 mps 748 mmHg 92%
04:00 +25°C° 0.1 mm 1 mps 748 mmHg 92%
05:00 +25°C° 0 mm 1 mps 748 mmHg 91%
06:00 +25°C° 0 mm 1 mps 748 mmHg 90%
07:00 +23°C° 0 mm 0 mps 749 mmHg 89%
08:00 +26°C° 0 mm 1 mps 749 mmHg 83%
09:00 +28°C° 0 mm 1 mps 749 mmHg 76%
10:00 +29°C° 0 mm 2 mps 750 mmHg 69%
11:00 +30°C° 0 mm 2 mps 749 mmHg 65%
12:00 +31°C° 0 mm 3 mps 749 mmHg 61%
13:00 +33°C° 0 mm 3 mps 748 mmHg 57%
14:00 +31°C° 0 mm 3 mps 748 mmHg 58%
15:00 +31°C° 0 mm 3 mps 747 mmHg 58%
16:00 +31°C° 0 mm 3 mps 747 mmHg 58%
17:00 +29°C° 0 mm 3 mps 747 mmHg 67%
18:00 +27°C° 0 mm 2 mps 748 mmHg 76%
19:00 +26°C° 0 mm 2 mps 748 mmHg 85%
20:00 +25°C° 0 mm 1 mps 748 mmHg 87%
21:00 +25°C° 0 mm 1 mps 749 mmHg 88%
22:00 +23°C° 0 mm 0 mps 749 mmHg 90%
23:00 +22°C° 0 mm 0 mps 749 mmHg 91%

Day after tomorrow, 25 April, Sunday

Time Temperature Precipitation Wind Pressure Humidity
00:00 +22°C° 0 mm 0 mps 749 mmHg 91%
01:00 +22°C° 0 mm 0 mps 749 mmHg 92%
02:00 +22°C° 0 mm 0 mps 748 mmHg 92%
03:00 +24°C° 0 mm 1 mps 748 mmHg 93%
04:00 +23°C° 0 mm 1 mps 748 mmHg 93%
05:00 +24°C° 0 mm 1 mps 748 mmHg 92%
06:00 +22°C° 0 mm 0 mps 748 mmHg 91%
07:00 +22°C° 0 mm 0 mps 749 mmHg 90%
08:00 +26°C° 0 mm 1 mps 749 mmHg 82%
09:00 +28°C° 0 mm 1 mps 749 mmHg 74%
10:00 +30°C° 0 mm 2 mps 750 mmHg 66%
11:00 +31°C° 0 mm 2 mps 749 mmHg 61%
12:00 +33°C° 0 mm 3 mps 748 mmHg 57%
13:00 +34°C° 0 mm 3 mps 748 mmHg 52%
14:00 +33°C° 0 mm 3 mps 747 mmHg 54%
15:00 +33°C° 0 mm 3 mps 747 mmHg 56%
16:00 +32°C° 0 mm 4 mps 747 mmHg 57%
17:00 +29°C° 0 mm 3 mps 747 mmHg 67%
18:00 +27°C° 0 mm 2 mps 747 mmHg 76%
19:00 +26°C° 0 mm 2 mps 748 mmHg 85%
20:00 +25°C° 0 mm 1 mps 748 mmHg 86%
21:00 +23°C° 0 mm 0 mps 749 mmHg 88%
22:00 +22°C° 0 mm 0 mps 749 mmHg 89%
23:00 +22°C° 0 mm 0 mps 749 mmHg 90%

26 April, Monday

Time Temperature Precipitation Wind Pressure Humidity
00:00 +22°C° 0 mm 0 mps 749 mmHg 90%
01:00 +22°C° 0 mm 0 mps 748 mmHg 91%
02:00 +22°C° 0 mm 0 mps 748 mmHg 90%
03:00 +23°C° 0 mm 0 mps 748 mmHg 90%
04:00 +23°C° 0 mm 0 mps 747 mmHg 89%
05:00 +23°C° 0 mm 0 mps 748 mmHg 89%
06:00 +23°C° 0 mm 0 mps 748 mmHg 89%
07:00 +23°C° 0 mm 0 mps 748 mmHg 88%
08:00 +27°C° 0.1 mm 1 mps 749 mmHg 84%
09:00 +28°C° 0.1 mm 1 mps 749 mmHg 80%
10:00 +29°C° 0.1 mm 2 mps 749 mmHg 75%
11:00 +30°C° 0.4 mm 2 mps 749 mmHg 71%
12:00 +31°C° 0.4 mm 3 mps 748 mmHg 67%
13:00 +33°C° 0.4 mm 3 mps 748 mmHg 62%
14:00 +31°C° 0.3 mm 3 mps 747 mmHg 65%
15:00 +30°C° 0.3 mm 3 mps 747 mmHg 68%
16:00 +30°C° 0.3 mm 3 mps 747 mmHg 71%
17:00 +28°C° 0.2 mm 3 mps 747 mmHg 78%
18:00 +27°C° 0.2 mm 2 mps 747 mmHg 85%
19:00 +26°C° 0.2 mm 1 mps 748 mmHg 91%
20:00 +25°C° 0 mm 1 mps 748 mmHg 92%
21:00 +23°C° 0 mm 0 mps 748 mmHg 93%
22:00 +23°C° 0 mm 0 mps 749 mmHg 94%
23:00 +23°C° 0 mm 0 mps 748 mmHg 94%

27 April, Tuesday

Time Temperature Precipitation Wind Pressure Humidity
00:00 +23°C° 0 mm 0 mps 748 mmHg 95%
01:00 +25°C° 0 mm 1 mps 748 mmHg 95%
02:00 +25°C° 0 mm 1 mps 748 mmHg 95%
03:00 +25°C° 0 mm 1 mps 748 mmHg 94%
04:00 +25°C° 0 mm 1 mps 747 mmHg 94%
05:00 +25°C° 0 mm 1 mps 748 mmHg 94%
06:00 +25°C° 0 mm 1 mps 748 mmHg 94%
07:00 +25°C° 0 mm 1 mps 748 mmHg 93%
08:00 +26°C° 0.1 mm 1 mps 749 mmHg 86%
09:00 +28°C° 0.1 mm 2 mps 749 mmHg 79%
10:00 +29°C° 0.1 mm 2 mps 749 mmHg 72%
11:00 +30°C° 0.2 mm 3 mps 749 mmHg 68%
12:00 +31°C° 0.2 mm 3 mps 748 mmHg 64%
13:00 +33°C° 0.2 mm 4 mps 748 mmHg 60%
14:00 +32°C° 0.1 mm 4 mps 747 mmHg 61%
15:00 +32°C° 0.1 mm 4 mps 747 mmHg 62%
16:00 +32°C° 0.1 mm 4 mps 746 mmHg 63%
17:00 +29°C° 0.1 mm 3 mps 747 mmHg 73%
18:00 +27°C° 0.1 mm 2 mps 747 mmHg 83%
19:00 +25°C° 0.1 mm 2 mps 747 mmHg 93%
20:00 +25°C° 0.3 mm 1 mps 748 mmHg 94%
21:00 +25°C° 0.3 mm 1 mps 748 mmHg 95%
22:00 +23°C° 0.3 mm 0 mps 748 mmHg 96%
23:00 +23°C° 0.3 mm 0 mps 748 mmHg 97%

28 April, Wednesday

Time Temperature Precipitation Wind Pressure Humidity
00:00 +22°C° 0.3 mm 0 mps 748 mmHg 97%
01:00 +22°C° 0.3 mm 0 mps 748 mmHg 97%
02:00 +22°C° 0.1 mm 0 mps 748 mmHg 97%
03:00 +22°C° 0.1 mm 0 mps 747 mmHg 97%
04:00 +24°C° 0.1 mm 1 mps 747 mmHg 98%
05:00 +22°C° 0 mm 0 mps 747 mmHg 97%
06:00 +23°C° 0 mm 0 mps 748 mmHg 96%
07:00 +23°C° 0 mm 0 mps 748 mmHg 96%
08:00 +26°C° 0.3 mm 1 mps 748 mmHg 90%
09:00 +27°C° 0.3 mm 2 mps 749 mmHg 85%
10:00 +29°C° 0.3 mm 2 mps 749 mmHg 80%
11:00 +29°C° 1.1 mm 2 mps 749 mmHg 79%
12:00 +29°C° 1.1 mm 3 mps 748 mmHg 78%
13:00 +30°C° 1.1 mm 3 mps 748 mmHg 77%
14:00 +29°C° 0.6 mm 3 mps 748 mmHg 77%
15:00 +29°C° 0.6 mm 3 mps 747 mmHg 77%
16:00 +29°C° 0.6 mm 3 mps 747 mmHg 77%
17:00 +28°C° 0.1 mm 2 mps 747 mmHg 81%
18:00 +27°C° 0.1 mm 2 mps 748 mmHg 85%
19:00 +26°C° 0.1 mm 1 mps 748 mmHg 89%
20:00 +25°C° 0 mm 1 mps 748 mmHg 90%
21:00 +25°C° 0 mm 1 mps 749 mmHg 91%
22:00 +23°C° 0 mm 0 mps 749 mmHg 92%
23:00 +24°C° 0 mm 1 mps 749 mmHg 92%
Show more